When you browse on this site, cookies collect data to enhance your experience and personalize the content and advertising you see.
Visit our Privacy Policy to learn more. By continuing to use the site, you agree to this use of cookies and data.
  • In Slovakia
  • List of Countries
  • For 7 days
  • Water Temperature
  • Weather Map
  • Weather Widgets
  • user-avatar
    Login

    Hourly Weather Hasselt

    Today, 22 August, Thursday

    Time Temperature Precipitation Wind Pressure Humidity
    00:00 +15°C° 0 mm 1 mps 766 mmHg 69%
    01:00 +14°C° 0 mm 1 mps 765 mmHg 71%
    02:00 +14°C° 0 mm 1 mps 765 mmHg 72%
    03:00 +14°C° 0 mm 1 mps 765 mmHg 74%
    04:00 +14°C° 0 mm 1 mps 765 mmHg 73%
    05:00 +15°C° 0 mm 1 mps 765 mmHg 73%
    06:00 +15°C° 0 mm 1 mps 765 mmHg 73%
    07:00 +17°C° 0 mm 2 mps 765 mmHg 65%
    08:00 +19°C° 0 mm 2 mps 766 mmHg 58%
    09:00 +23°C° 0 mm 2 mps 766 mmHg 51%
    10:00 +24°C° 0 mm 2 mps 766 mmHg 48%
    11:00 +25°C° 0 mm 2 mps 765 mmHg 44%
    12:00 +26°C° 0 mm 2 mps 765 mmHg 41%
    13:00 +26°C° 0 mm 2 mps 765 mmHg 40%
    14:00 +26°C° 0 mm 2 mps 765 mmHg 39%
    15:00 +27°C° 0 mm 2 mps 765 mmHg 37%
    16:00 +25°C° 0 mm 2 mps 765 mmHg 43%
    17:00 +24°C° 0 mm 1 mps 765 mmHg 48%
    18:00 +22°C° 0 mm 1 mps 764 mmHg 53%
    19:00 +21°C° 0 mm 1 mps 765 mmHg 58%
    20:00 +19°C° 0 mm 1 mps 765 mmHg 63%
    21:00 +18°C° 0 mm 1 mps 766 mmHg 68%
    22:00 +16°C° 0 mm 1 mps 766 mmHg 71%
    23:00 +15°C° 0 mm 1 mps 765 mmHg 74%

    Tomorrow, 23 August, Friday

    Time Temperature Precipitation Wind Pressure Humidity
    00:00 +15°C° 0 mm 1 mps 765 mmHg 77%
    01:00 +15°C° 0 mm 1 mps 765 mmHg 79%
    02:00 +14°C° 0 mm 1 mps 765 mmHg 80%
    03:00 +14°C° 0 mm 1 mps 765 mmHg 81%
    04:00 +15°C° 0 mm 1 mps 765 mmHg 80%
    05:00 +16°C° 0 mm 1 mps 765 mmHg 78%
    06:00 +16°C° 0 mm 1 mps 765 mmHg 77%
    07:00 +19°C° 0 mm 1 mps 765 mmHg 69%
    08:00 +22°C° 0 mm 1 mps 765 mmHg 62%
    09:00 +24°C° 0 mm 2 mps 765 mmHg 55%
    10:00 +25°C° 0 mm 2 mps 765 mmHg 50%
    11:00 +26°C° 0 mm 2 mps 764 mmHg 46%
    12:00 +28°C° 0 mm 2 mps 764 mmHg 42%
    13:00 +28°C° 0 mm 2 mps 764 mmHg 41%
    14:00 +28°C° 0 mm 2 mps 763 mmHg 40%
    15:00 +29°C° 0 mm 2 mps 763 mmHg 39%
    16:00 +27°C° 0 mm 2 mps 763 mmHg 45%
    17:00 +26°C° 0 mm 2 mps 763 mmHg 51%
    18:00 +24°C° 0 mm 2 mps 763 mmHg 57%
    19:00 +23°C° 0 mm 2 mps 763 mmHg 61%
    20:00 +20°C° 0 mm 2 mps 763 mmHg 65%
    21:00 +19°C° 0 mm 3 mps 763 mmHg 69%
    22:00 +18°C° 0 mm 2 mps 763 mmHg 72%
    23:00 +18°C° 0 mm 2 mps 763 mmHg 74%

    Day after tomorrow, 24 August, Saturday

    Time Temperature Precipitation Wind Pressure Humidity
    00:00 +18°C° 0 mm 1 mps 762 mmHg 77%
    01:00 +18°C° 0 mm 1 mps 762 mmHg 77%
    02:00 +16°C° 0 mm 1 mps 762 mmHg 77%
    03:00 +16°C° 0 mm 1 mps 762 mmHg 77%
    04:00 +18°C° 0 mm 1 mps 762 mmHg 75%
    05:00 +18°C° 0 mm 1 mps 762 mmHg 73%
    06:00 +19°C° 0 mm 1 mps 762 mmHg 70%
    07:00 +21°C° 0 mm 1 mps 762 mmHg 63%
    08:00 +24°C° 0 mm 1 mps 761 mmHg 55%
    09:00 +26°C° 0 mm 2 mps 761 mmHg 47%
    10:00 +27°C° 0 mm 2 mps 761 mmHg 44%
    11:00 +28°C° 0 mm 2 mps 761 mmHg 40%
    12:00 +30°C° 0 mm 2 mps 761 mmHg 36%
    13:00 +30°C° 0 mm 2 mps 760 mmHg 36%
    14:00 +30°C° 0 mm 2 mps 760 mmHg 35%
    15:00 +30°C° 0 mm 2 mps 760 mmHg 35%
    16:00 +29°C° 0 mm 2 mps 759 mmHg 41%
    17:00 +27°C° 0 mm 2 mps 759 mmHg 47%
    18:00 +25°C° 0 mm 2 mps 759 mmHg 53%
    19:00 +24°C° 0 mm 2 mps 759 mmHg 55%
    20:00 +23°C° 0 mm 2 mps 760 mmHg 57%
    21:00 +20°C° 0 mm 2 mps 760 mmHg 60%
    22:00 +20°C° 0 mm 2 mps 760 mmHg 61%
    23:00 +20°C° 0 mm 1 mps 759 mmHg 62%

    25 August, Sunday

    Time Temperature Precipitation Wind Pressure Humidity
    00:00 +20°C° 0 mm 1 mps 759 mmHg 64%
    01:00 +19°C° 0 mm 1 mps 759 mmHg 64%
    02:00 +19°C° 0 mm 1 mps 759 mmHg 64%
    03:00 +19°C° 0 mm 1 mps 759 mmHg 65%
    04:00 +19°C° 0 mm 1 mps 759 mmHg 65%
    05:00 +20°C° 0 mm 1 mps 759 mmHg 65%
    06:00 +20°C° 0 mm 1 mps 759 mmHg 65%
    07:00 +23°C° 0 mm 1 mps 759 mmHg 60%
    08:00 +25°C° 0 mm 1 mps 759 mmHg 54%
    09:00 +27°C° 0 mm 1 mps 760 mmHg 48%
    10:00 +29°C° 0 mm 1 mps 759 mmHg 45%
    11:00 +30°C° 0 mm 1 mps 759 mmHg 41%
    12:00 +31°C° 0 mm 1 mps 759 mmHg 37%
    13:00 +32°C° 0 mm 1 mps 759 mmHg 35%
    14:00 +32°C° 0 mm 1 mps 759 mmHg 34%
    15:00 +32°C° 0 mm 1 mps 759 mmHg 32%
    16:00 +31°C° 0 mm 1 mps 759 mmHg 37%
    17:00 +29°C° 0 mm 1 mps 759 mmHg 42%
    18:00 +27°C° 0 mm 1 mps 759 mmHg 47%
    19:00 +26°C° 0 mm 1 mps 759 mmHg 51%
    20:00 +24°C° 0 mm 1 mps 760 mmHg 55%
    21:00 +23°C° 0 mm 1 mps 760 mmHg 59%
    22:00 +23°C° 0 mm 1 mps 760 mmHg 61%
    23:00 +22°C° 0 mm 1 mps 760 mmHg 64%

    26 August, Monday

    Time Temperature Precipitation Wind Pressure Humidity
    00:00 +22°C° 0 mm 1 mps 760 mmHg 67%
    01:00 +21°C° 0 mm 1 mps 760 mmHg 68%
    02:00 +21°C° 0 mm 1 mps 760 mmHg 69%
    03:00 +21°C° 0 mm 1 mps 760 mmHg 71%
    04:00 +21°C° 0 mm 1 mps 760 mmHg 71%
    05:00 +22°C° 0 mm 1 mps 761 mmHg 70%
    06:00 +20°C° 0 mm 0 mps 761 mmHg 70%
    07:00 +22°C° 0 mm 0 mps 761 mmHg 63%
    08:00 +25°C° 0 mm 0 mps 761 mmHg 56%
    09:00 +27°C° 0 mm 0 mps 761 mmHg 49%
    10:00 +29°C° 0 mm 0 mps 761 mmHg 45%
    11:00 +30°C° 0 mm 0 mps 761 mmHg 40%
    12:00 +31°C° 0 mm 0 mps 761 mmHg 36%
    13:00 +33°C° 0 mm 1 mps 761 mmHg 34%
    14:00 +33°C° 0 mm 1 mps 761 mmHg 33%
    15:00 +33°C° 0 mm 1 mps 761 mmHg 31%
    16:00 +31°C° 0 mm 1 mps 761 mmHg 38%
    17:00 +30°C° 0 mm 2 mps 760 mmHg 44%
    18:00 +28°C° 0 mm 2 mps 760 mmHg 50%
    19:00 +27°C° 0 mm 2 mps 761 mmHg 52%
    20:00 +25°C° 0 mm 2 mps 761 mmHg 54%
    21:00 +24°C° 0 mm 2 mps 762 mmHg 55%
    22:00 +23°C° 0 mm 2 mps 761 mmHg 57%
    23:00 +23°C° 0 mm 1 mps 761 mmHg 58%

    27 August, Tuesday

    Time Temperature Precipitation Wind Pressure Humidity
    00:00 +22°C° 0 mm 1 mps 761 mmHg 60%
    01:00 +22°C° 0 mm 1 mps 761 mmHg 61%
    02:00 +21°C° 0 mm 1 mps 761 mmHg 62%
    03:00 +21°C° 0 mm 1 mps 760 mmHg 63%
    04:00 +21°C° 0 mm 1 mps 760 mmHg 64%
    05:00 +22°C° 0 mm 1 mps 760 mmHg 66%
    06:00 +22°C° 0 mm 1 mps 761 mmHg 67%
    07:00 +24°C° 0 mm 1 mps 760 mmHg 60%
    08:00 +26°C° 0 mm 1 mps 760 mmHg 54%
    09:00 +29°C° 0 mm 2 mps 760 mmHg 48%
    10:00 +30°C° 0 mm 2 mps 760 mmHg 44%
    11:00 +31°C° 0 mm 2 mps 759 mmHg 41%
    12:00 +34°C° 0 mm 2 mps 759 mmHg 37%
    13:00 +34°C° 0 mm 2 mps 759 mmHg 36%
    14:00 +34°C° 0 mm 2 mps 758 mmHg 35%
    15:00 +34°C° 0 mm 3 mps 758 mmHg 34%
    16:00 +31°C° 0 mm 2 mps 757 mmHg 39%
    17:00 +30°C° 0 mm 2 mps 757 mmHg 44%
    18:00 +28°C° 0 mm 2 mps 757 mmHg 50%
    19:00 +27°C° 0 mm 2 mps 757 mmHg 52%
    20:00 +25°C° 0 mm 2 mps 757 mmHg 54%
    21:00 +24°C° 0 mm 2 mps 757 mmHg 57%
    22:00 +24°C° 0 mm 2 mps 757 mmHg 58%
    23:00 +23°C° 0 mm 1 mps 757 mmHg 58%
    Show more